Location: Caltech
(34.1382°N, 118.1253°W)
Time: 21:02:42
(UTC-07:00)

JAS-2 - Visible Passes

Search period start: 30 October 2014 00:00
Search period end: 08 November 2014 23:00
Orbit: 801 x 1321 km, 98.5° (Epoch: 30 October)

Date Brightness Start Highest point End Pass type
(mag) Time Alt. Az. Time Alt. Az. Time Alt. Az.
30 Oct 12.9 04:43:12 10° ENE 04:46:53 14° E 04:50:30 10° ESE visible
30 Oct 10.2 06:24:49 10° NNE 06:32:45 87° ESE 06:40:19 10° SSW visible
30 Oct 10.9 18:17:32 10° S 18:23:19 47° W 18:29:54 10° NNW visible
31 Oct 11.7 05:30:34 10° NNE 05:37:39 36° E 05:44:23 10° SSE visible
31 Oct 12.6 19:10:03 10° SW 19:14:01 17° W 19:18:16 10° NW visible
01 Nov 12.9 04:38:59 10° ENE 04:42:01 13° E 04:44:59 10° ESE visible
01 Nov 10.3 06:20:03 10° NNE 06:27:58 82° ESE 06:35:27 10° S visible
02 Nov 11.8 04:25:54 10° NNE 04:32:50 33° E 04:39:22 10° SSE visible
02 Nov 12.5 18:04:42 10° SW 18:09:04 19° W 18:13:48 10° NW visible
03 Nov 13.0 03:34:59 10° ENE 03:37:08 11° E 03:39:14 10° ESE visible
03 Nov 10.3 05:15:18 10° NNE 05:23:12 78° ESE 05:30:34 10° S visible
04 Nov 11.8 04:21:16 10° NE 04:27:59 31° E 04:34:18 10° SSE visible
04 Nov 12.4 17:59:24 10° SW 18:04:08 22° W 18:09:17 10° NW visible
05 Nov 10.4 05:10:33 10° NNE 05:18:24 73° ESE 05:25:39 10° S visible
06 Nov 11.9 04:16:39 10° NE 04:23:09 29° E 04:29:13 10° SSE visible
06 Nov 12.3 17:54:09 10° SW 17:59:13 24° W 18:04:45 10° NW visible
07 Nov 10.4 05:05:50 10° NNE 05:13:36 69° E 05:20:44 10° S visible
08 Nov 12.0 04:12:03 10° NE 04:18:17 27° E 04:24:06 10° SSE visible
08 Nov 12.2 17:48:57 10° SSW 17:54:18 26° W 18:00:11 10° NW visible
